This is the latest recevied weather packets stored in our database for station/object KD4UFD. If no packets are shown the sender has not sent any weather packets the latest 10 day(s).
| Time | Temp. | Humidity | Pressure | Rain* | Wind** | Luminosity | Snow |
|---|---|---|---|---|---|---|---|
| 1778024217 | 23.33° C | 50% | 1010.2 hPa | 0 mm | - | 34 W/m² | - |
| 1778023915 | 23.33° C | 48% | 1010 hPa | 0 mm | - | 47 W/m² | - |
| 1778023612 | 23.89° C | 49% | 1010 hPa | 0 mm | - | 69 W/m² | - |
| 1778023310 | 23.89° C | 49% | 1010.3 hPa | 0 mm | - | 120 W/m² | - |
| 1778023006 | 23.89° C | 48% | 1010 hPa | 0 mm | - | 125 W/m² | - |
| 1778022705 | 23.33° C | 50% | 1010.3 hPa | 0 mm | - | 126 W/m² | - |
| 1778022403 | 23.33° C | 51% | 1009.9 hPa | 0 mm | - | 75 W/m² | - |
| 1778022099 | 23.89° C | 50% | 1010 hPa | 0 mm | - | 84 W/m² | - |
| 1778021795 | 23.89° C | 51% | 1010.3 hPa | 0 mm | - | 94 W/m² | - |
| 1778021492 | 23.89° C | 52% | 1010.3 hPa | 0 mm | - | 115 W/m² | - |
| 1778021188 | 23.89° C | 51% | 1010.3 hPa | 0 mm | - | 128 W/m² | - |
| 1778020886 | 24.44° C | 51% | 1010.3 hPa | 0 mm | - | 157 W/m² | - |
| 1778020583 | 24.44° C | 51% | 1010.4 hPa | 0 mm | - | 216 W/m² | - |
| 1778020279 | 23.89° C | 53% | 1010.4 hPa | 0 mm | - | 246 W/m² | - |
| 1778019975 | 23.89° C | 51% | 1010.6 hPa | 0 mm | - | 147 W/m² | - |
| 1778019672 | 23.89° C | 51% | 1010.5 hPa | 0 mm | - | 139 W/m² | - |
| 1778019369 | 23.89° C | 51% | 1010.7 hPa | 0 mm | - | 133 W/m² | - |
| 1778019065 | 23.89° C | 50% | 1010.7 hPa | 0 mm | - | 169 W/m² | - |
| 1778018763 | 23.89° C | 51% | 1010.7 hPa | 0 mm | - | 163 W/m² | - |
| 1778018461 | 23.89° C | 52% | 1010.7 hPa | 0 mm | - | 174 W/m² | - |
| 1778018158 | 23.89° C | 51% | 1010.7 hPa | 0 mm | - | 173 W/m² | - |
| 1778017856 | 23.89° C | 51% | 1010.5 hPa | 0 mm | - | 186 W/m² | - |
| 1778017554 | 23.89° C | 49% | 1010.7 hPa | 0 mm | - | 214 W/m² | - |
| 1778017250 | 23.89° C | 50% | 1010.7 hPa | 0 mm | - | 212 W/m² | - |
| 1778016948 | 23.89° C | 49% | 1010.6 hPa | 0 mm | - | 204 W/m² | - |
* Rain latest hour (hover to see other rain measurements)
** Current wind speed in m/s (hover to see current wind gust speed)